Sigfox identifier Datetime Temperature Humidity SNR
003C5573 2019-03-18 13:16:51 20.7 27 22.9
003C5573 2019-03-18 12:46:35 20.7 28 22.8
003C5573 2019-03-18 12:16:19 20.6 28 21.9
003C5573 2019-03-18 11:46:04 20.6 28 21.7
003C5573 2019-03-18 11:15:50 20.6 28 21.6
003C5573 2019-03-18 10:45:36 20.5 27 21.7
003C5573 2019-03-18 10:15:22 20.5 27 21.8
003C5573 2019-03-18 09:45:08 20.5 27 21.8
003C5573 2019-03-18 09:14:54 20.5 28 21.7
003C5573 2019-03-18 08:44:39 20.5 27 21.7
003C5573 2019-03-18 08:14:25 20.5 27 21.8
003C5573 2019-03-18 07:44:11 20.5 27 21.9
003C5573 2019-03-18 07:13:56 20.5 27 21.8
003C5573 2019-03-18 06:43:40 20.5 27 20.6
003C5573 2019-03-18 06:13:25 20.5 27 20.6
003C5573 2019-03-18 05:43:10 20.5 27 19
003C5573 2019-03-18 05:12:55 20.5 27 19
003C5573 2019-03-18 04:42:39 20.5 27 18.8
003C5573 2019-03-18 04:12:26 20.5 27 18.9
003C5573 2019-03-18 03:42:06 20.5 27 18.8
003C5573 2019-03-18 03:11:50 20.5 27 18.6
003C5573 2019-03-18 02:41:34 20.5 27 20.3
003C5573 2019-03-18 02:11:18 20.5 27 20.3
003C5573 2019-03-18 01:41:01 20.5 27 20.3
003C5573 2019-03-18 01:10:44 20.5 27 20.2
003C5573 2019-03-18 00:40:28 20.5 27 20.1
003C5573 2019-03-18 00:10:13 20.5 26 20.2
003C5573 2019-03-17 23:39:56 20.4 26 20.2
003C5573 2019-03-17 23:09:40 20.5 26 20.1
003C5573 2019-03-17 22:39:24 20.5 26 20
003C5573 2019-03-17 22:09:09 20.5 26 19.9
003C5573 2019-03-17 21:38:53 20.5 26 19.9
003C5573 2019-03-17 21:08:35 20.5 26 20
003C5573 2019-03-17 20:38:19 20.5 26 20.1
003C5573 2019-03-17 20:08:04 20.5 26 20.1
003C5573 2019-03-17 19:37:49 20.5 26 20.1
003C5573 2019-03-17 19:07:32 20.5 26 20
003C5573 2019-03-17 18:37:18 20.5 26 20.1
003C5573 2019-03-17 18:06:27 20.5 26 20.2
003C5573 2019-03-17 17:36:13 20.5 27 20.2
003C5573 2019-03-17 17:05:57 20.5 27 20.2
003C5573 2019-03-17 16:35:42 20.5 27 20.2
003C5573 2019-03-17 16:05:26 20.5 27 20.2
003C5573 2019-03-17 15:35:10 20.5 27 20.2
003C5573 2019-03-17 15:04:54 20.5 27 20.2
003C5573 2019-03-17 14:34:39 20.5 27 20.3
003C5573 2019-03-17 14:04:22 20.5 27 18.7
003C5573 2019-03-17 13:34:06 20.5 27 19
003C5573 2019-03-17 13:03:49 20.5 27 18.9
003C5573 2019-03-17 12:33:33 20.5 27 19
003C5573 2019-03-17 12:03:15 20.5 27 19.1
003C5573 2019-03-17 11:32:59 20.5 27 19.2
003C5573 2019-03-17 11:02:42 20.5 27 19.4
003C5573 2019-03-17 10:32:27 20.5 27 19.5
003C5573 2019-03-17 10:02:13 20.5 27 19.6
003C5573 2019-03-17 09:31:57 20.5 27 19.6
003C5573 2019-03-17 09:01:42 20.5 27 19.5
003C5573 2019-03-17 08:31:26 20.5 27 19.3
003C5573 2019-03-17 08:01:12 20.5 27 19.2
003C5573 2019-03-17 07:30:57 20.5 27 18.9
003C5573 2019-03-17 07:00:42 20.5 27 18.9
003C5573 2019-03-17 06:30:27 20.5 27 18.9
003C5573 2019-03-17 06:00:11 20.5 27 18.8
003C5573 2019-03-17 05:29:55 20.5 27 18.5
003C5573 2019-03-17 04:59:39 20.5 27 18.5
003C5573 2019-03-17 04:29:24 20.5 27 18.2
003C5573 2019-03-17 03:59:08 20.5 27 18.1
003C5573 2019-03-17 03:28:53 20.5 27 18.2
003C5573 2019-03-17 02:58:38 20.5 27 18.1
003C5573 2019-03-17 02:28:22 20.5 27 18
003C5573 2019-03-17 01:58:07 20.5 27 17.8
003C5573 2019-03-17 01:27:52 20.5 27 17.6
003C5573 2019-03-17 00:57:37 20.5 27 17.3
003C5573 2019-03-17 00:27:22 20.5 27 17.4
003C5573 2019-03-16 23:57:08 20.5 27 19.5
003C5573 2019-03-16 23:26:52 20.5 27 19.4
003C5573 2019-03-16 22:56:36 20.5 27 19.3
003C5573 2019-03-16 22:26:21 20.5 27 19.1
003C5573 2019-03-16 21:56:07 20.5 27 19
003C5573 2019-03-16 21:25:52 20.5 27 19
003C5573 2019-03-16 20:55:38 20.5 27 19
003C5573 2019-03-16 20:25:24 20.5 27 19
003C5573 2019-03-16 19:55:09 20.5 27 19.1
003C5573 2019-03-16 19:24:57 20.5 27 19.2
003C5573 2019-03-16 18:54:41 20.5 27 19.2
003C5573 2019-03-16 18:24:23 20.5 27 19.3
003C5573 2019-03-16 17:54:08 20.5 27 19.4
003C5573 2019-03-16 17:23:51 20.5 27 19.4
003C5573 2019-03-16 16:53:05 20.5 27 19.6
003C5573 2019-03-16 16:22:50 20.5 27 19.6
003C5573 2019-03-16 15:52:34 20.5 27 19.7
003C5573 2019-03-16 15:22:18 20.5 26 19.7
003C5573 2019-03-16 14:52:01 20.5 26 19.7
003C5573 2019-03-16 14:21:45 20.5 26 19.7
003C5573 2019-03-16 13:51:28 20.5 26 19.7
003C5573 2019-03-16 13:21:13 20.5 26 19.6
003C5573 2019-03-16 12:50:59 20.5 26 19.6
003C5573 2019-03-16 12:20:39 20.5 26 19.6
003C5573 2019-03-16 11:50:21 20.5 26 17.2
003C5573 2019-03-16 11:20:04 20.5 26 17.1
003C5573 2019-03-16 10:49:48 20.5 26 17
003C5573 2019-03-16 10:19:30 20.5 26 19.4
003C5573 2019-03-16 09:49:14 20.5 26 19.5
003C5573 2019-03-16 09:18:56 20.5 26 19.5
003C5573 2019-03-16 08:48:40 20.5 26 19.6
003C5573 2019-03-16 08:18:23 20.5 26 19.6
003C5573 2019-03-16 07:48:08 20.5 26 19.6
003C5573 2019-03-16 07:17:53 20.5 26 19.7
003C5573 2019-03-16 06:47:39 20.6 26 19.8
003C5573 2019-03-16 06:17:24 20.6 26 19.8
003C5573 2019-03-16 05:47:08 20.5 26 20.2
003C5573 2019-03-16 05:16:52 20.5 27 20.4
003C5573 2019-03-16 04:46:35 20.5 27 20.7
003C5573 2019-03-16 04:16:20 20.5 27 20.9
003C5573 2019-03-16 03:46:04 20.5 27 21.1
003C5573 2019-03-16 03:15:48 20.5 27 21.1
003C5573 2019-03-16 02:45:33 20.5 27 21.3
003C5573 2019-03-16 02:15:17 20.5 27 21.4
003C5573 2019-03-16 01:45:02 20.6 27 21.5
003C5573 2019-03-16 01:14:46 20.6 27 21.5
003C5573 2019-03-16 00:44:32 20.6 27 21.6
003C5573 2019-03-16 00:14:16 20.6 27 21.6
003C5573 2019-03-15 23:44:01 20.6 27 21.7
003C5573 2019-03-15 23:13:46 20.6 27 21.8
003C5573 2019-03-15 22:43:30 20.6 27 21.8
003C5573 2019-03-15 22:13:14 20.6 27 21.8
003C5573 2019-03-15 21:42:57 20.6 27 20.6
003C5573 2019-03-15 21:12:44 20.7 27 20.6
003C5573 2019-03-15 20:42:27 20.7 27 20.7
003C5573 2019-03-15 20:12:10 20.7 27 20.7
003C5573 2019-03-15 19:41:54 20.7 27 20.9
003C5573 2019-03-15 19:11:38 20.7 27 21.1
003C5573 2019-03-15 18:41:22 20.7 27 21.2
003C5573 2019-03-15 18:11:06 20.7 27 21.2
003C5573 2019-03-15 17:40:50 20.7 26 21.2
003C5573 2019-03-15 17:10:35 20.7 26 21
003C5573 2019-03-15 16:40:20 20.7 26 21
003C5573 2019-03-15 16:10:04 20.9 26 20.7
003C5573 2019-03-15 16:08:53 20.7 26 20.6
003C5573 2019-03-15 15:38:37 20.7 26 20.5
003C5573 2019-03-15 15:08:22 20.7 26 20.5
003C5573 2019-03-15 14:38:07 20.7 26 20.3
003C5573 2019-03-15 14:07:52 20.7 26 20.2
003C5573 2019-03-15 13:37:36 20.7 26 20.1
003C5573 2019-03-15 13:07:20 20.7 27 20.2
003C5573 2019-03-15 12:37:04 20.6 26 20.2
003C5573 2019-03-15 12:06:47 20.7 26 20.2
003C5573 2019-03-15 11:36:29 20.6 26 20.1
003C5573 2019-03-15 11:06:14 20.7 26 20
003C5573 2019-03-15 10:36:00 20.6 26 20.1
003C5573 2019-03-15 10:05:43 20.6 26 21.4
003C5573 2019-03-15 09:35:28 20.5 26 21.4
003C5573 2019-03-15 09:05:12 20.5 25 21.5
003C5573 2019-03-15 08:34:56 20.5 25 21.4
003C5573 2019-03-15 08:04:41 20.5 25 21.3
003C5573 2019-03-15 07:34:26 20.5 25 21.2
003C5573 2019-03-15 07:04:08 20.5 25 21
003C5573 2019-03-15 06:33:53 20.5 25 20.9
003C5573 2019-03-15 06:03:38 20.5 24 20.9
003C5573 2019-03-15 05:33:22 20.5 24 21
003C5573 2019-03-15 05:03:04 20.5 24 20.7
003C5573 2019-03-15 04:32:48 20.5 24 20.7
003C5573 2019-03-15 04:02:31 20.5 24 20.7
003C5573 2019-03-15 03:32:14 20.5 24 20.5
003C5573 2019-03-15 03:01:55 20.5 24 20.4
003C5573 2019-03-15 02:31:37 20.6 24 20.3
003C5573 2019-03-15 02:01:21 20.6 24 20.4
003C5573 2019-03-15 01:31:05 20.5 24 20.6
003C5573 2019-03-15 01:00:49 20.6 24 20.5
003C5573 2019-03-15 00:30:32 20.6 24 20.4
003C5573 2019-03-15 00:00:16 20.6 24 20.4
003C5573 2019-03-14 23:29:59 20.6 24 20.5
003C5573 2019-03-14 22:59:42 20.6 24 20.6
003C5573 2019-03-14 22:29:25 20.6 24 20.7
003C5573 2019-03-14 21:59:10 20.7 24 20.8
003C5573 2019-03-14 21:28:54 20.7 24 19.6
003C5573 2019-03-14 20:58:37 20.7 24 19.6
003C5573 2019-03-14 20:28:21 20.7 24 19.5
003C5573 2019-03-14 19:58:04 20.7 24 19.6
003C5573 2019-03-14 19:27:47 20.7 24 19.8
003C5573 2019-03-14 18:57:30 20.8 24 20.1
003C5573 2019-03-14 18:27:16 20.8 24 20
003C5573 2019-03-14 17:57:00 20.8 24 21.4
003C5573 2019-03-14 17:26:43 20.8 24 21.5
003C5573 2019-03-14 16:56:27 20.8 24 21.5
003C5573 2019-03-14 16:26:10 20.8 24 21.5
003C5573 2019-03-14 15:55:54 20.8 24 21.6
003C5573 2019-03-14 15:25:38 20.8 24 21.6
003C5573 2019-03-14 14:54:49 20.9 24 21.9
003C5573 2019-03-14 14:24:33 20.8 24 21.9
003C5573 2019-03-14 13:54:17 20.9 24 21.8
003C5573 2019-03-14 13:24:04 20.8 24 21.8
003C5573 2019-03-14 12:53:48 20.8 24 21.9
003C5573 2019-03-14 12:23:35 20.7 23 21.9
003C5573 2019-03-14 11:53:19 20.7 23 21.9
003C5573 2019-03-14 11:23:05 20.7 23 22.1
003C5573 2019-03-14 10:52:45 20.7 23 22.1
003C5573 2019-03-14 10:22:30 20.6 23 22.9
003C5573 2019-03-14 09:52:13 20.6 22 23
003C5573 2019-03-14 09:21:57 20.6 21 23.6
003C5573 2019-03-14 08:51:41 20.6 21 23.6
003C5573 2019-03-14 04:49:30 20.5 19 22.7
003C5573 2019-03-14 04:19:14 20.5 19 22.7
003C5573 2019-03-14 03:48:56 20.5 18 22.7
003C5573 2019-03-14 03:18:40 20.5 18 22.6
003C5573 2019-03-14 02:48:23 20.5 18 22.5
003C5573 2019-03-14 02:18:08 20.5 18 22.5
003C5573 2019-03-14 01:47:54 20.5 18 23.3
003C5573 2019-03-14 01:17:38 20.5 18 23.4
003C5573 2019-03-14 00:47:23 20.5 18 23.4
003C5573 2019-03-14 00:17:07 20.5 17 23.4
003C5573 2019-03-13 23:46:51 20.5 17 23.4
003C5573 2019-03-13 23:16:35 20.5 17 23.3
003C5573 2019-03-13 22:46:19 20.5 17 23.2
003C5573 2019-03-13 22:16:03 20.6 17 23.2
003C5573 2019-03-13 21:45:47 20.6 17 22.4
003C5573 2019-03-13 21:15:29 20.6 17 22.3
003C5573 2019-03-13 20:45:13 20.6 17 21.2
003C5573 2019-03-13 20:14:57 20.6 17 21.2
003C5573 2019-03-13 19:44:41 20.7 17 21.3
003C5573 2019-03-13 19:14:24 20.7 17 21.2
003C5573 2019-03-13 18:44:09 20.7 16 21.2
003C5573 2019-03-13 18:13:51 20.8 16 21.2
003C5573 2019-03-13 17:43:37 20.8 16 21.2
003C5573 2019-03-13 17:13:21 20.8 17 21.2
003C5573 2019-03-13 16:43:04 20.9 17 21.2
003C5573 2019-03-13 16:12:49 20.8 17 21.4
003C5573 2019-03-13 15:42:35 20.8 16 21.4
003C5573 2019-03-13 15:12:20 20.8 16 21.4
003C5573 2019-03-13 14:42:06 20.7 16 21.6
003C5573 2019-03-13 14:11:52 20.7 17 21.6
003C5573 2019-03-13 13:41:05 20.7 16 20.4
003C5573 2019-03-13 13:10:54 20.7 16 20.4
003C5573 2019-03-13 12:40:38 20.7 17 20.3
003C5573 2019-03-13 12:10:27 20.7 16 20.2
003C5573 2019-03-13 11:40:11 20.7 17 20.2
003C5573 2019-03-13 11:09:58 20.6 17 20.2
003C5573 2019-03-13 10:39:44 20.6 16 20.1
003C5573 2019-03-13 10:09:29 20.5 17 20.2
003C5573 2019-03-13 09:39:15 20.3 16 20.1
003C5573 2019-03-13 09:09:00 20.2 15 20.2
003C5573 2019-03-13 08:38:46 20.2 15 20.3
003C5573 2019-03-13 08:08:32 20.2 15 20.3
003C5573 2019-03-13 07:38:16 20.3 15 20.2
003C5573 2019-03-13 07:08:01 20.2 15 20.2
003C5573 2019-03-13 06:37:47 20.3 16 20
003C5573 2019-03-13 06:07:31 20.3 16 20
003C5573 2019-03-13 05:37:16 20.3 16 20
003C5573 2019-03-13 05:07:00 20.3 16 19.8
003C5573 2019-03-13 04:36:45 20.3 16 19.9
003C5573 2019-03-13 04:06:29 20.3 16 19.6
003C5573 2019-03-13 03:36:16 20.3 16 19.7
003C5573 2019-03-13 03:06:00 20.3 16 21.1
003C5573 2019-03-13 02:35:45 20.4 16 20.9
003C5573 2019-03-13 02:05:29 20.3 16 22
003C5573 2019-03-13 01:35:15 20.4 16 22.9
003C5573 2019-03-13 01:05:00 20.4 16 22.9
003C5573 2019-03-13 00:34:45 20.4 16 22.8
003C5573 2019-03-13 00:04:29 20.4 16 22.9
003C5573 2019-03-12 23:34:15 20.4 16 23
003C5573 2019-03-12 23:03:59 20.5 16 23.7
003C5573 2019-03-12 22:33:43 20.5 16 23.7
003C5573 2019-03-12 22:03:27 20.5 16 23.8
003C5573 2019-03-12 21:33:12 20.5 16 24.4
003C5573 2019-03-12 21:02:57 20.5 16 24.9
003C5573 2019-03-12 20:32:41 20.5 16 24.9
003C5573 2019-03-12 20:02:27 20.5 16 25.4
003C5573 2019-03-12 19:32:12 20.6 16 25.8
003C5573 2019-03-12 19:01:56 20.6 16 26.2
003C5573 2019-03-12 18:31:41 20.6 16 26.6
003C5573 2019-03-12 18:01:27 20.7 16 27
003C5573 2019-03-12 17:31:12 20.7 16 27.3
003C5573 2019-03-12 17:00:59 20.6 16 27.6
003C5573 2019-03-12 16:30:42 20.7 16 27.8
003C5573 2019-03-12 16:00:27 20.6 16 28.1
003C5573 2019-03-12 15:30:15 20.6 16 28.3
003C5573 2019-03-12 15:00:01 20.6 16 28.6
003C5573 2019-03-12 14:29:44 20.6 16 28.3
003C5573 2019-03-12 13:59:28 20.6 16 28.3
003C5573 2019-03-12 13:29:12 20.6 16 28.3
003C5573 2019-03-12 12:58:58 20.5 16 28.3
003C5573 2019-03-12 12:28:09 20.5 16 28.8
003C5573 2019-03-12 11:57:55 20.5 16 29
003C5573 2019-03-12 11:27:41 20.4 16 29.2
003C5573 2019-03-12 10:57:26 20.4 16 29.2
003C5573 2019-03-12 10:27:13 20.3 16 29.4
003C5573 2019-03-12 09:56:59 20.3 16 29.5
003C5573 2019-03-12 09:26:43 20.3 15 29.3
003C5573 2019-03-12 08:56:29 20.2 15 29.3
003C5573 2019-03-12 08:26:14 20.2 16 29.5
003C5573 2019-03-12 07:55:59 20.2 16 29.5
003C5573 2019-03-12 07:25:45 20.3 16 29.5
003C5573 2019-03-12 06:55:30 20.3 16 29.5
003C5573 2019-03-12 06:25:16 20.3 16 29.5
003C5573 2019-03-12 05:55:02 20.3 16 29.3
003C5573 2019-03-12 05:24:48 20.3 16 29.3
003C5573 2019-03-12 04:54:34 20.3 16 29.1
003C5573 2019-03-12 04:24:21 20.3 16 28.9
003C5573 2019-03-12 03:54:07 20.4 16 28.7
003C5573 2019-03-12 03:23:54 20.3 16 28.5
003C5573 2019-03-12 02:53:39 20.4 16 28.2
003C5573 2019-03-12 02:23:26 20.4 17 28.2
003C5573 2019-03-12 01:53:12 20.4 17 28.2
003C5573 2019-03-12 01:22:57 20.4 17 28
003C5573 2019-03-12 00:52:44 20.4 17 27.7
003C5573 2019-03-12 00:22:29 20.4 17 27.4
003C5573 2019-03-11 23:52:15 20.4 16 27.1
003C5573 2019-03-11 23:22:02 20.4 16 26.8
003C5573 2019-03-11 22:51:47 20.5 16 26.5
003C5573 2019-03-11 22:21:32 20.5 17 26.1
003C5573 2019-03-11 21:51:17 20.5 16 25.7
003C5573 2019-03-11 21:21:03 20.6 17 25.2
003C5573 2019-03-11 20:50:48 20.6 16 25.3
003C5573 2019-03-11 20:20:32 20.6 16 24.7
003C5573 2019-03-11 19:50:17 20.6 16 24.1
003C5573 2019-03-11 19:20:03 20.6 16 23.5
003C5573 2019-03-11 18:49:47 20.6 16 22.7
003C5573 2019-03-11 18:19:31 20.7 16 21.7
003C5573 2019-03-11 17:49:17 20.7 16 20.5
003C5573 2019-03-11 17:19:03 20.7 16 20.6
003C5573 2019-03-11 16:48:48 20.7 16 19
003C5573 2019-03-11 16:18:34 20.7 16 19
003C5573 2019-03-11 15:48:20 20.6 16 19.2
003C5573 2019-03-11 15:18:05 20.5 16 19.1
003C5573 2019-03-11 14:47:50 20.5 17 19.2
003C5573 2019-03-11 14:17:36 20.5 16 19.4
003C5573 2019-03-11 13:47:21 20.5 16 19.4
003C5573 2019-03-11 13:17:05 20.4 16 19.3
003C5573 2019-03-11 12:46:51 20.4 16 19.5
003C5573 2019-03-11 12:16:37 20.4 17 19.6
003C5573 2019-03-11 11:46:22 20.4 17 19.6
003C5573 2019-03-11 11:15:34 20.4 17 19.9
003C5573 2019-03-11 10:45:19 20.3 17 19.8
003C5573 2019-03-11 10:15:05 20.3 17 19.8
003C5573 2019-03-11 09:44:52 20.3 17 19.9
003C5573 2019-03-11 09:14:39 20.2 17 19.8
003C5573 2019-03-11 08:44:25 20.2 18 19.9
003C5573 2019-03-11 08:14:10 20.3 18 20
003C5573 2019-03-11 07:43:56 20.2 18 20
003C5573 2019-03-11 07:13:41 20.3 18 20
003C5573 2019-03-11 06:43:28 20.3 18 20
003C5573 2019-03-11 06:13:12 20.3 18 20
003C5573 2019-03-11 05:42:58 20.3 18 20
003C5573 2019-03-11 05:12:42 20.3 19 20.1
003C5573 2019-03-11 04:42:28 20.3 19 20.1
003C5573 2019-03-11 04:12:13 20.3 19 20
003C5573 2019-03-11 03:41:57 20.3 19 19.8
003C5573 2019-03-11 03:11:41 20.3 19 19.9
003C5573 2019-03-11 02:41:25 20.4 19 19.9
003C5573 2019-03-11 02:11:09 20.4 19 19.8
003C5573 2019-03-11 01:40:55 20.4 19 20
003C5573 2019-03-11 01:10:39 20.3 19 20
003C5573 2019-03-11 00:40:26 20.4 19 19.8
003C5573 2019-03-11 00:10:12 20.4 19 19.6
003C5573 2019-03-10 23:39:58 20.4 20 19.5
003C5573 2019-03-10 23:09:44 20.4 20 19.4
003C5573 2019-03-10 22:39:29 20.4 20 19.2
003C5573 2019-03-10 22:09:14 20.4 20 19.3
003C5573 2019-03-10 21:38:59 20.4 20 19.4
003C5573 2019-03-10 21:08:44 20.5 20 19.2
003C5573 2019-03-10 20:38:29 20.5 20 19.2
003C5573 2019-03-10 20:08:15 20.5 20 19.1
003C5573 2019-03-10 19:38:02 20.5 20 19.1
003C5573 2019-03-10 19:07:47 20.6 20 20.7
003C5573 2019-03-10 18:37:32 20.6 21 20.8
003C5573 2019-03-10 18:07:18 20.6 21 20.8
003C5573 2019-03-10 17:37:02 20.6 21 20.8
003C5573 2019-03-10 17:06:48 20.6 21 20.8
003C5573 2019-03-10 16:36:34 20.6 21 20.7
003C5573 2019-03-10 16:06:20 20.5 21 20.6
003C5573 2019-03-10 15:36:08 20.5 21 20.7
003C5573 2019-03-10 15:05:51 20.5 22 20.9
003C5573 2019-03-10 14:35:36 20.5 23 20.9
003C5573 2019-03-10 14:05:20 20.5 24 20.9
003C5573 2019-03-10 13:35:07 20.5 24 20.9
003C5573 2019-03-10 13:04:53 20.4 24 20.8
003C5573 2019-03-10 12:34:39 20.4 24 20.9
003C5573 2019-03-10 12:04:25 20.4 24 20.9
003C5573 2019-03-10 11:34:11 20.4 24 21
003C5573 2019-03-10 11:03:57 20.4 24 21.1
003C5573 2019-03-10 10:33:41 20.4 24 21.1
003C5573 2019-03-10 10:02:54 20.4 24 21.1
003C5573 2019-03-10 09:32:41 20.4 24 21
003C5573 2019-03-10 09:02:26 20.4 25 21.1
003C5573 2019-03-10 08:32:12 20.5 25 21.3
003C5573 2019-03-10 08:01:58 20.4 25 21.2
003C5573 2019-03-10 07:31:44 20.4 25 21.2
003C5573 2019-03-10 07:01:30 20.5 25 19.7
003C5573 2019-03-10 06:31:17 20.5 25 19.5
003C5573 2019-03-10 06:01:01 20.4 24 19.7
003C5573 2019-03-10 05:30:46 20.5 24 19.7
003C5573 2019-03-10 05:00:32 20.4 24 19.7
003C5573 2019-03-10 04:30:17 20.5 24 19.6
003C5573 2019-03-10 04:00:02 20.5 24 19.6
003C5573 2019-03-10 03:29:48 20.5 24 19.6
003C5573 2019-03-10 02:59:34 20.5 24 19.5
003C5573 2019-03-10 02:29:19 20.5 24 19.6
003C5573 2019-03-10 01:59:08 20.5 24 19.8
003C5573 2019-03-10 01:28:49 20.5 24 19.8
003C5573 2019-03-10 00:58:35 20.5 24 19.9
003C5573 2019-03-10 00:28:22 20.5 24 19.9
003C5573 2019-03-09 23:58:07 20.5 24 20
003C5573 2019-03-09 23:27:54 20.5 24 20
003C5573 2019-03-09 22:57:40 20.5 24 20
003C5573 2019-03-09 22:27:26 20.5 24 20
003C5573 2019-03-09 21:57:09 20.5 24 19.9
003C5573 2019-03-09 21:26:55 20.5 24 19.7
003C5573 2019-03-09 20:56:40 20.6 24 19.9
003C5573 2019-03-09 20:26:25 20.6 23 19.9
003C5573 2019-03-09 19:56:09 20.6 23 19.7
003C5573 2019-03-09 19:25:56 20.6 23 19.8
003C5573 2019-03-09 18:55:41 20.6 23 19.9
003C5573 2019-03-09 18:25:26 20.7 23 20
003C5573 2019-03-09 17:55:11 20.6 23 20.2
003C5573 2019-03-09 17:24:56 20.7 23 20.1
003C5573 2019-03-09 16:54:42 20.7 23 20.1
003C5573 2019-03-09 16:24:28 20.7 24 19.9
003C5573 2019-03-09 15:54:14 20.7 24 20.1
003C5573 2019-03-09 15:23:58 20.7 24 20.3
003C5573 2019-03-09 14:53:45 20.6 24 20.4
003C5573 2019-03-09 14:23:30 20.7 24 20.4
003C5573 2019-03-09 13:53:15 20.6 24 20.3
003C5573 2019-03-09 13:23:01 20.6 24 20.3
003C5573 2019-03-09 12:52:47 20.5 24 20.3
003C5573 2019-03-09 12:22:36 20.5 24 20.2
003C5573 2019-03-09 11:52:20 20.5 24 20.1
003C5573 2019-03-09 11:22:06 20.5 24 20.1
003C5573 2019-03-09 10:51:52 20.5 24 20.1
003C5573 2019-03-09 10:21:40 20.5 24 20.2
003C5573 2019-03-09 09:51:25 20.5 25 20.4
003C5573 2019-03-09 09:21:12 20.5 25 20.5
003C5573 2019-03-09 08:50:25 20.5 25 20.4
003C5573 2019-03-09 08:20:11 20.5 25 20.4
003C5573 2019-03-09 07:49:57 20.5 25 20.5
003C5573 2019-03-09 07:19:43 20.5 26 20.5
003C5573 2019-03-09 06:49:30 20.5 26 20.5
003C5573 2019-03-09 06:19:18 20.5 26 20.5
003C5573 2019-03-09 05:49:04 20.5 26 20.4
003C5573 2019-03-09 05:18:54 20.6 26 20.4
003C5573 2019-03-09 04:48:39 20.6 26 20.4
003C5573 2019-03-09 04:18:25 20.6 27 20.4
003C5573 2019-03-09 03:48:10 20.6 27 20.4
003C5573 2019-03-09 03:17:57 20.6 27 21.5
003C5573 2019-03-09 02:47:43 20.6 27 21.5
003C5573 2019-03-09 02:17:29 20.6 27 21.3
003C5573 2019-03-09 01:47:14 20.6 27 21.4
003C5573 2019-03-09 01:16:58 20.7 27 21.4
003C5573 2019-03-09 00:46:43 20.7 27 21.3
003C5573 2019-03-09 00:16:31 20.7 27 22.3
003C5573 2019-03-08 23:46:18 20.7 27 22.3
003C5573 2019-03-08 23:16:04 20.8 27 22.2
003C5573 2019-03-08 22:45:52 20.8 27 22.1
003C5573 2019-03-08 22:15:39 20.8 27 22.1
003C5573 2019-03-08 21:45:26 20.8 27 22.1
003C5573 2019-03-08 21:15:15 20.9 27 22.2
003C5573 2019-03-08 20:45:02 20.9 27 22.3
003C5573 2019-03-08 20:14:47 20.9 27 22.3
003C5573 2019-03-08 19:44:33 20.9 27 22.3
003C5573 2019-03-08 19:14:21 20.9 27 22.3
003C5573 2019-03-08 18:44:05 20.9 27 22.5
003C5573 2019-03-08 18:13:52 20.9 27 22.4
003C5573 2019-03-08 17:43:38 21 27 22.4
003C5573 2019-03-08 17:13:24 21 27 22.5
003C5573 2019-03-08 16:43:11 21 28 22.5
003C5573 2019-03-08 16:12:56 21 28 22.7
003C5573 2019-03-08 15:42:42 20.9 28 22.8
003C5573 2019-03-08 15:12:28 20.9 27 21.9
003C5573 2019-03-08 14:42:12 20.9 27 22
003C5573 2019-03-08 14:11:58 20.9 27 22.2
003C5573 2019-03-08 13:41:43 20.9 27 22.3
003C5573 2019-03-08 13:11:28 20.8 27 22.3
003C5573 2019-03-08 12:41:12 20.8 27 22.4
003C5573 2019-03-08 12:10:56 20.7 26 21.5
003C5573 2019-03-08 11:40:42 20.7 26 21.7
003C5573 2019-03-08 11:10:27 20.7 26 21.9
003C5573 2019-03-08 10:40:14 20.7 25 21.9
003C5573 2019-03-08 10:09:59 20.7 25 21.8
003C5573 2019-03-08 09:39:43 20.7 25 21.8
003C5573 2019-03-08 09:09:28 20.7 25 21.7
003C5573 2019-03-08 08:39:14 20.6 24 21.7
003C5573 2019-03-08 08:09:01 20.6 24 21.8
003C5573 2019-03-08 07:38:14 20.6 24 21.9
003C5573 2019-03-08 07:08:00 20.6 24 21.8
003C5573 2019-03-08 06:37:45 20.6 24 21.7
003C5573 2019-03-08 06:07:32 20.6 24 21.6
003C5573 2019-03-08 05:37:18 20.6 23 21.7
003C5573 2019-03-08 05:07:05 20.6 23 21.7
003C5573 2019-03-08 04:36:52 20.6 23 21.7
003C5573 2019-03-08 04:06:36 20.6 23 21.6
003C5573 2019-03-08 03:36:21 20.6 23 21.4
003C5573 2019-03-08 03:06:07 20.6 23 21.4
003C5573 2019-03-08 02:35:52 20.7 23 21.3
003C5573 2019-03-08 02:05:37 20.6 23 21.1
003C5573 2019-03-08 01:35:25 20.6 23 21
003C5573 2019-03-08 01:05:10 20.7 23 20.9
003C5573 2019-03-08 00:34:56 20.7 23 22
003C5573 2019-03-08 00:04:41 20.7 23 21.9
003C5573 2019-03-07 23:34:27 20.7 23 21.9
003C5573 2019-03-07 23:04:14 20.7 23 21.7
003C5573 2019-03-07 22:33:59 20.7 23 21.6
003C5573 2019-03-07 22:03:45 20.7 22 21.7
003C5573 2019-03-07 21:33:32 20.8 22 21.6
003C5573 2019-03-07 21:03:19 20.8 22 21.6
003C5573 2019-03-07 20:33:05 20.8 22 21.5
003C5573 2019-03-07 20:02:53 20.8 22 21.2
003C5573 2019-03-07 19:32:38 20.9 22 21.2
003C5573 2019-03-07 19:02:24 20.9 22 21
003C5573 2019-03-07 18:32:10 21 22 21
003C5573 2019-03-07 18:01:57 21 22 21
003C5573 2019-03-07 17:31:43 21.1 22 21
003C5573 2019-03-07 17:01:28 21.1 22 20.9
003C5573 2019-03-07 16:31:13 21.1 22 22
003C5573 2019-03-07 16:00:57 21.1 22 21.9
003C5573 2019-03-07 15:30:42 21 22 21.7
003C5573 2019-03-07 15:00:28 21 21 21.7
003C5573 2019-03-07 14:30:14 21 22 21.7
003C5573 2019-03-07 14:00:00 20.9 21 21.6
003C5573 2019-03-07 13:29:46 20.9 20 21.6
003C5573 2019-03-07 12:59:31 20.9 20 21.6
003C5573 2019-03-07 12:29:18 20.8 19 21.5
003C5573 2019-03-07 11:59:06 20.8 19 20.2
003C5573 2019-03-07 11:28:53 20.8 19 20.1
003C5573 2019-03-07 10:58:41 20.8 19 19.7
003C5573 2019-03-07 10:28:29 20.7 18 19.7
003C5573 2019-03-07 09:58:17 20.6 17 19.6
003C5573 2019-03-07 09:28:05 20.6 17 19.3
003C5573 2019-03-07 08:57:51 20.6 16 19.3
003C5573 2019-03-07 08:27:39 20.6 16 19.2
003C5573 2019-03-07 07:57:25 20.6 16 19.2
003C5573 2019-03-07 07:27:13 20.6 15 19.2
003C5573 2019-03-07 06:57:00 20.6 15 19.1
003C5573 2019-03-07 06:26:12 20.6 15 19
003C5573 2019-03-07 05:55:59 20.6 15 19
003C5573 2019-03-07 05:25:46 20.6 15 18.9
003C5573 2019-03-07 04:55:33 20.6 14 19
003C5573 2019-03-07 04:25:19 20.6 14 16.6
003C5573 2019-03-07 03:55:06 20.6 14 16.7
003C5573 2019-03-07 03:24:53 20.6 14 16.7
003C5573 2019-03-07 02:54:40 20.6 14 16.9
003C5573 2019-03-07 02:24:25 20.6 14 16.9
003C5573 2019-03-07 01:54:10 20.6 13 16.6
003C5573 2019-03-07 01:23:56 20.6 13 16.6
003C5573 2019-03-07 00:53:41 20.6 13 16.6
003C5573 2019-03-07 00:23:29 20.6 13 16.7
003C5573 2019-03-06 23:53:16 20.6 13 19.3
003C5573 2019-03-06 23:23:03 20.6 13 19.3
003C5573 2019-03-06 22:52:51 20.6 13 19.3
003C5573 2019-03-06 22:22:38 20.6 12 19.5
003C5573 2019-03-06 21:52:27 20.7 12 19.6
003C5573 2019-03-06 21:22:16 20.7 12 19.6
003C5573 2019-03-06 20:52:03 20.7 12 19.6
003C5573 2019-03-06 20:21:48 20.7 12 19.6
003C5573 2019-03-06 19:51:33 20.7 12 19.4
003C5573 2019-03-06 19:21:19 20.7 12 19.5
003C5573 2019-03-06 18:51:04 20.7 12 19.4
003C5573 2019-03-06 18:20:51 20.8 12 19.4
003C5573 2019-03-06 17:50:38 20.8 12 19.4
003C5573 2019-03-06 17:20:26 20.9 12 19.5
003C5573 2019-03-06 16:50:13 20.9 12 19.5
003C5573 2019-03-06 16:19:59 20.9 11 19.4
003C5573 2019-03-06 15:49:46 20.9 11 19.1
003C5573 2019-03-06 15:19:33 20.9 11 18.9
003C5573 2019-03-06 14:49:19 20.8 12 19
003C5573 2019-03-06 14:19:07 20.7 11 18.8
003C5573 2019-03-06 13:48:52 20.6 11 18.9
003C5573 2019-03-06 13:18:39 20.6 11 20.7
003C5573 2019-03-06 12:48:29 20.6 11 20.6
003C5573 2019-03-06 12:18:14 20.6 12 20.7
003C5573 2019-03-06 11:47:59 20.6 12 20.8
003C5573 2019-03-06 11:17:44 20.5 12 19.2
003C5573 2019-03-06 10:47:28 20.5 12 19.3
003C5573 2019-03-06 10:17:14 20.4 12 19.4
003C5573 2019-03-06 09:46:59 20.3 11 19.5
003C5573 2019-03-06 09:16:46 20.3 11 19.4
003C5573 2019-03-06 08:46:30 20.3 12 19.5
003C5573 2019-03-06 08:16:17 20.4 12 19.7
003C5573 2019-03-06 07:46:02 20.4 12 20
003C5573 2019-03-06 07:15:48 20.4 12 20.4
003C5573 2019-03-06 06:45:35 20.4 12 20.6
003C5573 2019-03-06 06:15:22 20.4 12 20.6
003C5573 2019-03-06 05:45:08 20.4 13 20.6
003C5573 2019-03-06 05:14:24 20.4 13 20.9
003C5573 2019-03-06 04:44:11 20.4 13 21
003C5573 2019-03-06 04:13:58 20.5 13 20.9
003C5573 2019-03-06 03:43:44 20.5 13 22.1
003C5573 2019-03-06 03:13:30 20.5 13 22.2
003C5573 2019-03-06 02:43:16 20.5 13 22.2
003C5573 2019-03-06 02:13:01 20.5 13 22.2
003C5573 2019-03-06 01:42:47 20.6 13 22.4
003C5573 2019-03-06 01:12:34 20.6 13 21.2
003C5573 2019-03-06 00:42:21 20.6 13 21.2
003C5573 2019-03-06 00:12:06 20.6 13 21.2
003C5573 2019-03-05 23:41:52 20.6 13 21.1
003C5573 2019-03-05 23:11:38 20.7 13 21.2
003C5573 2019-03-05 22:41:24 20.7 13 21.2
003C5573 2019-03-05 22:11:08 20.7 13 21.2
003C5573 2019-03-05 21:40:56 20.7 13 21.1
003C5573 2019-03-05 21:10:39 20.8 13 21.1
003C5573 2019-03-05 20:40:24 20.8 13 21.1
003C5573 2019-03-05 20:10:08 20.8 13 21
003C5573 2019-03-05 19:39:52 20.8 13 20.9
003C5573 2019-03-05 19:09:34 20.8 13 20.6
003C5573 2019-03-05 18:39:22 20.8 14 20.5
003C5573 2019-03-05 18:09:02 20.9 14 20.5
003C5573 2019-03-05 17:38:51 20.9 14 20.7
003C5573 2019-03-05 17:08:31 21 15 20.8
003C5573 2019-03-05 16:38:17 20.9 15 20.7
003C5573 2019-03-05 16:07:59 20.9 15 20.9
003C5573 2019-03-05 15:37:46 20.9 16 21
003C5573 2019-03-05 15:07:30 20.7 16 19.5
003C5573 2019-03-05 14:37:15 20.6 16 19.4
003C5573 2019-03-05 14:07:00 20.6 17 19.9
003C5573 2019-03-05 13:36:45 20.6 17 20.3
003C5573 2019-03-05 13:06:28 20.5 17 20.2
003C5573 2019-03-05 12:36:11 20.5 17 20.5
003C5573 2019-03-05 12:05:56 20.5 17 20.6
003C5573 2019-03-05 11:35:41 20.5 18 20.6
003C5573 2019-03-05 11:05:26 20.4 18 20.7
003C5573 2019-03-05 10:35:09 20.4 18 20.7
003C5573 2019-03-05 10:04:54 20.4 18 20.7
003C5573 2019-03-05 09:34:38 20.4 18 20.6
003C5573 2019-03-05 09:04:23 20.4 18 20.7
003C5573 2019-03-05 08:34:08 20.4 19 20.8
003C5573 2019-03-05 08:03:53 20.4 19 20.9
003C5573 2019-03-05 07:33:38 20.4 19 20.9
003C5573 2019-03-05 07:03:21 20.4 19 21
003C5573 2019-03-05 06:33:03 20.4 19 21.2
003C5573 2019-03-05 06:02:47 20.4 19 21.3
003C5573 2019-03-05 05:32:33 20.4 19 21.4
003C5573 2019-03-05 05:02:18 20.4 19 21.4
003C5573 2019-03-05 04:32:02 20.5 19 21.3
003C5573 2019-03-05 04:01:15 20.4 19 21.1
003C5573 2019-03-05 03:30:59 20.4 19 21.4
003C5573 2019-03-05 03:00:44 20.4 19 22.4
003C5573 2019-03-05 02:30:28 20.5 19 22.4
003C5573 2019-03-05 02:00:14 20.5 19 22.2
003C5573 2019-03-05 01:30:00 20.5 19 22
003C5573 2019-03-05 00:59:48 20.5 19 21.8
003C5573 2019-03-05 00:29:34 20.5 19 21.7
003C5573 2019-03-04 23:59:20 20.5 19 21.9
003C5573 2019-03-04 23:29:06 20.5 19 21.9
003C5573 2019-03-04 22:58:53 20.5 19 21.9
003C5573 2019-03-04 22:28:38 20.5 19 21.8
003C5573 2019-03-04 21:58:22 20.5 19 21.7
003C5573 2019-03-04 21:28:08 20.4 18 21.6
003C5573 2019-03-04 20:57:53 20.5 18 22.6
003C5573 2019-03-04 20:27:37 20.5 18 22.5
003C5573 2019-03-04 19:57:21 20.5 18 22.5
003C5573 2019-03-04 19:27:07 20.5 18 22.4
003C5573 2019-03-04 18:56:52 20.5 18 22.3
003C5573 2019-03-04 18:26:34 20.5 18 22.2
003C5573 2019-03-04 17:56:20 20.5 18 22.2
003C5573 2019-03-04 17:26:05 20.5 18 22.1
003C5573 2019-03-04 16:55:51 20.5 18 21.9
003C5573 2019-03-04 16:25:37 20.5 18 21.9
003C5573 2019-03-04 15:55:24 20.5 18 21.9
003C5573 2019-03-04 15:25:06 20.4 18 21.8
003C5573 2019-03-04 14:54:51 20.4 18 21.6
003C5573 2019-03-04 14:24:36 20.4 17 20.2
003C5573 2019-03-04 13:54:22 20.4 17 20.4
003C5573 2019-03-04 13:24:08 20.3 17 20.4
003C5573 2019-03-04 12:53:55 20.3 17 20.3
003C5573 2019-03-04 12:23:43 20.2 17 20.4
003C5573 2019-03-04 11:53:31 20.2 17 20.5
003C5573 2019-03-04 11:23:16 20.2 17 20.1
003C5573 2019-03-04 10:53:02 20.1 17 20.1
003C5573 2019-03-04 10:22:48 20.1 17 20
003C5573 2019-03-04 09:52:32 20 17 20
003C5573 2019-03-04 09:22:16 20 17 20.1
003C5573 2019-03-04 08:52:02 20 17 20.1
003C5573 2019-03-04 08:21:47 20 18 18.3
003C5573 2019-03-04 07:51:33 20 18 18.2
003C5573 2019-03-04 07:21:19 19.9 18 18.2
003C5573 2019-03-04 06:51:03 20 18 18.2
003C5573 2019-03-04 06:20:48 20 18 18.1
003C5573 2019-03-04 05:50:34 20 18 18
003C5573 2019-03-04 05:20:20 20 18 17.7
003C5573 2019-03-04 04:50:07 20 18 17.7
003C5573 2019-03-04 04:19:53 20 18 17.9
003C5573 2019-03-04 03:49:40 20 18 17.8
003C5573 2019-03-04 03:19:27 20 18 17.8
003C5573 2019-03-04 02:48:39 20 18 18.1
003C5573 2019-03-04 02:18:25 20 18 18.5
003C5573 2019-03-04 01:48:11 20 18 18.2
003C5573 2019-03-04 01:17:57 20 18 18.3
003C5573 2019-03-04 00:47:41 20 18 18.2
003C5573 2019-03-04 00:17:24 20 18 18.5
003C5573 2019-03-03 23:47:10 20 18 18.2
003C5573 2019-03-03 23:16:56 20 18 18.4
003C5573 2019-03-03 22:46:39 20 18 20.3
003C5573 2019-03-03 22:16:26 20 17 20.3
003C5573 2019-03-03 21:46:10 20 18 20.4
003C5573 2019-03-03 21:15:56 20 18 20.4
003C5573 2019-03-03 20:45:41 20 18 20.4
003C5573 2019-03-03 20:15:27 20.1 18 20.2
003C5573 2019-03-03 19:45:13 20.1 18 20.2
003C5573 2019-03-03 19:15:00 20.1 18 20.2
003C5573 2019-03-03 18:44:46 20.1 18 20.1
003C5573 2019-03-03 18:14:31 20.1 18 20.2
003C5573 2019-03-03 17:44:17 20.1 18 20.1
003C5573 2019-03-03 17:14:03 20.1 18 20.2
003C5573 2019-03-03 16:43:48 20.2 18 20.2
003C5573 2019-03-03 16:13:34 20.1 18 21.5
003C5573 2019-03-03 15:43:21 20.1 18 21.5
003C5573 2019-03-03 15:13:07 20.1 18 21.4
003C5573 2019-03-03 14:42:51 20.1 18 21.4
003C5573 2019-03-03 14:12:38 20.1 18 21.4
003C5573 2019-03-03 13:42:23 20.1 18 21.1
003C5573 2019-03-03 13:12:09 20.1 18 21.1
003C5573 2019-03-03 12:41:54 20.1 18 21.1
003C5573 2019-03-03 12:11:37 20.1 18 21
003C5573 2019-03-03 11:41:21 20.1 18 20.9
003C5573 2019-03-03 11:11:07 20.1 18 20.8
003C5573 2019-03-03 10:40:52 20.1 18 20.7
003C5573 2019-03-03 10:10:37 20.1 18 19
003C5573 2019-03-03 09:40:23 20.1 18 19.1
003C5573 2019-03-03 09:10:09 20.1 18 18.9
003C5573 2019-03-03 08:39:55 20.1 18 18.8
003C5573 2019-03-03 08:09:43 20.1 18 18.7
003C5573 2019-03-03 07:39:25 20.2 18 18.7
003C5573 2019-03-03 07:09:12 20.2 18 18.8
003C5573 2019-03-03 06:38:57 20.2 18 18.8
003C5573 2019-03-03 06:08:44 20.2 18 18.8
003C5573 2019-03-03 05:38:30 20.2 18 18.7
003C5573 2019-03-03 05:08:17 20.2 18 18.7
003C5573 2019-03-03 04:38:03 20.2 18 18.6
003C5573 2019-03-03 04:07:48 20.2 18 18.6
003C5573 2019-03-03 03:37:36 20.2 18 15.2
003C5573 2019-03-03 03:07:20 20.2 18 15.4
003C5573 2019-03-03 02:37:04 20.2 18 15.3
003C5573 2019-03-03 02:06:48 20.3 18 14.9
003C5573 2019-03-03 01:36:00 20.3 18 14.8
003C5573 2019-03-03 01:05:42 20.3 18 14.6
003C5573 2019-03-03 00:35:27 20.3 18 14.9
003C5573 2019-03-03 00:05:11 20.3 18 15.1
003C5573 2019-03-02 23:34:54 20.3 18 15.1
003C5573 2019-03-02 23:04:41 20.3 18 15.4
003C5573 2019-03-02 22:34:23 20.3 18 15.5
003C5573 2019-03-02 21:33:51 20.3 18 18.6
003C5573 2019-03-02 21:03:35 20.3 18 18.5
003C5573 2019-03-02 20:33:19 20.3 18 18.6
003C5573 2019-03-02 20:03:03 20.4 17 18.7
003C5573 2019-03-02 19:32:47 20.4 17 18.9
003C5573 2019-03-02 19:02:32 20.4 17 18.9
003C5573 2019-03-02 18:32:17 20.4 17 19
003C5573 2019-03-02 18:02:01 20.5 17 19.2
003C5573 2019-03-02 17:31:47 20.5 17 19.2
003C5573 2019-03-02 17:01:29 20.5 17 19.3
003C5573 2019-03-02 16:31:17 20.5 17 19.3
003C5573 2019-03-02 16:01:00 20.5 17 19.4
003C5573 2019-03-02 15:30:47 20.5 17 19.6
003C5573 2019-03-02 15:00:33 20.3 17 19.6
003C5573 2019-03-02 14:30:20 20.3 17 19.7
003C5573 2019-03-02 14:00:05 20.3 17 19.7
003C5573 2019-03-02 13:29:52 20.3 16 19.7
003C5573 2019-03-02 12:59:39 20.3 16 19.8
003C5573 2019-03-02 12:29:25 20.3 16 20
003C5573 2019-03-02 11:59:11 20.3 16 19.9
003C5573 2019-03-02 11:28:57 20.3 16 20.2
003C5573 2019-03-02 10:58:43 20.3 16 20.2
003C5573 2019-03-02 10:28:29 20.3 16 20.1
003C5573 2019-03-02 09:58:16 20.3 16 20.1
003C5573 2019-03-02 09:28:03 20.3 16 18.1
003C5573 2019-03-02 08:57:47 20.3 15 18.3
003C5573 2019-03-02 08:27:31 20.3 15 18.3
003C5573 2019-03-02 07:57:16 20.3 15 18.2
003C5573 2019-03-02 07:27:01 20.4 15 18.2
003C5573 2019-03-02 06:56:45 20.3 15 18.3
003C5573 2019-03-02 06:26:30 20.4 15 18.3
003C5573 2019-03-02 05:56:14 20.4 15 18.2
003C5573 2019-03-02 05:25:59 20.4 15 20.2
003C5573 2019-03-02 04:55:42 20.4 15 20.5
003C5573 2019-03-02 04:25:26 20.4 15 20.8
003C5573 2019-03-02 03:55:10 20.4 15 20.9
003C5573 2019-03-02 03:24:53 20.5 14 20.9
003C5573 2019-03-02 02:54:37 20.5 14 20.7
003C5573 2019-03-02 02:24:20 20.5 14 21.1
003C5573 2019-03-02 01:54:06 20.5 14 21
003C5573 2019-03-02 01:23:51 20.6 14 21.2
003C5573 2019-03-02 00:53:36 20.6 14 21.5
003C5573 2019-03-02 00:22:48 20.6 14 21.7
003C5573 2019-03-01 23:52:32 20.7 14 21.9
003C5573 2019-03-01 23:22:16 20.8 14 21.7
003C5573 2019-03-01 22:52:01 20.8 13 21.7
003C5573 2019-03-01 22:21:45 20.9 13 22
003C5573 2019-03-01 21:51:29 20.9 13 22
003C5573 2019-03-01 21:21:14 20.9 13 22.1
003C5573 2019-03-01 20:50:59 20.9 13 22.1
003C5573 2019-03-01 20:20:44 20.9 13 22.2
003C5573 2019-03-01 19:50:28 20.9 13 22.4
003C5573 2019-03-01 19:20:11 20.9 13 22.5
003C5573 2019-03-01 18:49:54 21 13 22.5
003C5573 2019-03-01 18:19:37 21.1 13 22.6
003C5573 2019-03-01 17:49:21 21.1 13 22.6
003C5573 2019-03-01 17:19:07 21.3 14 21.6
003C5573 2019-03-01 16:48:53 21.3 14 21.6
003C5573 2019-03-01 16:18:34 21.2 14 21.4
003C5573 2019-03-01 15:48:20 21.1 14 21.4
003C5573 2019-03-01 15:18:04 21 15 21.6
003C5573 2019-03-01 14:47:49 20.9 15 21.6
003C5573 2019-03-01 14:17:35 20.8 15 21.6
003C5573 2019-03-01 13:47:20 20.8 15 21.7
003C5573 2019-03-01 13:17:04 20.8 15 21.8
003C5573 2019-03-01 12:46:49 20.9 16 21.5
003C5573 2019-03-01 12:16:34 20.9 16 21.6
003C5573 2019-03-01 11:46:20 20.9 17 21.5
003C5573 2019-03-01 11:16:01 20.8 17 21.4
003C5573 2019-03-01 10:45:45 20.7 17 21.4
003C5573 2019-03-01 10:15:31 20.6 17 21.5
003C5573 2019-03-01 09:45:15 20.5 17 21.4
003C5573 2019-03-01 09:15:01 20.5 17 21.6
003C5573 2019-03-01 08:44:47 20.4 17 21.6
003C5573 2019-03-01 08:14:31 20.4 18 21.6
003C5573 2019-03-01 07:44:17 20.5 18 21.7
003C5573 2019-03-01 07:14:03 20.5 18 21.7
003C5573 2019-03-01 06:43:50 20.5 19 21.7
003C5573 2019-03-01 06:13:36 20.5 19 21.8
003C5573 2019-03-01 05:43:23 20.5 19 21.8
003C5573 2019-03-01 05:13:11 20.5 19 21.8
003C5573 2019-03-01 04:42:57 20.5 19 21.7
003C5573 2019-03-01 04:12:44 20.5 20 21.7
003C5573 2019-03-01 03:42:31 20.6 20 21.8
003C5573 2019-03-01 03:12:17 20.6 20 21.8
003C5573 2019-03-01 02:42:03 20.6 20 21.6
003C5573 2019-03-01 02:11:48 20.6 21 21.8
003C5573 2019-03-01 01:41:34 20.6 21 21.5
003C5573 2019-03-01 01:11:19 20.6 21 21.4
003C5573 2019-03-01 00:41:05 20.6 22 21.2
003C5573 2019-03-01 00:10:51 20.7 22 21.3
003C5573 2019-02-28 23:40:38 20.9 22 21
003C5573 2019-02-28 23:39:26 20.7 22 21.1
003C5573 2019-02-28 23:09:14 20.7 22 21.1
003C5573 2019-02-28 22:38:59 20.7 23 21.2
003C5573 2019-02-28 22:08:46 20.8 23 21.2
003C5573 2019-02-28 21:38:33 20.8 23 21.3
003C5573 2019-02-28 21:08:19 20.8 23 21.1
003C5573 2019-02-28 20:38:07 20.9 23 21
003C5573 2019-02-28 20:07:53 20.9 24 21
003C5573 2019-02-28 19:37:38 20.9 24 20.8
003C5573 2019-02-28 19:07:23 21 24 21.1
003C5573 2019-02-28 18:37:10 21.1 24 21
003C5573 2019-02-28 18:06:56 21.2 25 21
003C5573 2019-02-28 17:36:42 21.3 25 21.1
003C5573 2019-02-28 17:06:28 21.3 26 21.2
003C5573 2019-02-28 16:36:13 21.3 26 21.5
003C5573 2019-02-28 16:06:01 21.3 26 21.5
003C5573 2019-02-28 15:35:48 21.2 26 21.3
003C5573 2019-02-28 15:05:34 21.2 25 21.4
003C5573 2019-02-28 14:35:21 21.2 25 21.4
003C5573 2019-02-28 14:05:07 21.2 25 21.4
003C5573 2019-02-28 13:34:51 21.2 25 21.5
003C5573 2019-02-28 13:04:38 21.2 25 21.7
003C5573 2019-02-28 12:34:26 21.1 25 21.8
003C5573 2019-02-28 12:04:12 21.1 25 21.8
003C5573 2019-02-28 11:34:00 21 24 21.7
003C5573 2019-02-28 11:03:49 21 25 21.8
003C5573 2019-02-28 10:33:37 20.8 24 21.8
003C5573 2019-02-28 10:03:25 20.7 23 21.7
003C5573 2019-02-28 09:33:14 20.7 23 21.7
003C5573 2019-02-28 09:02:59 20.7 23 21.7
003C5573 2019-02-28 08:32:45 20.7 23 21.8
003C5573 2019-02-28 08:02:31 20.7 22 21.9
003C5573 2019-02-28 07:32:17 20.7 22 22
003C5573 2019-02-28 07:02:04 20.7 22 22.1
003C5573 2019-02-28 06:31:50 20.7 22 21.8
003C5573 2019-02-28 06:01:36 20.7 22 21.8
003C5573 2019-02-28 05:31:22 20.7 22 21.9
003C5573 2019-02-28 05:01:09 20.7 22 21.7
003C5573 2019-02-28 04:30:57 20.7 22 21.7
003C5573 2019-02-28 04:00:45 20.7 22 21.7
003C5573 2019-02-28 03:30:33 20.7 22 21.8
003C5573 2019-02-28 03:00:21 20.8 22 21.8
003C5573 2019-02-28 02:30:07 20.8 22 21.9
003C5573 2019-02-28 01:59:53 20.8 22 21.9
003C5573 2019-02-28 01:29:41 20.8 22 21.8
003C5573 2019-02-28 00:59:29 20.8 22 21.8
003C5573 2019-02-28 00:29:15 20.8 23 21.7
003C5573 2019-02-27 23:59:04 20.9 23 22.8
003C5573 2019-02-27 23:28:50 20.9 23 22.7
003C5573 2019-02-27 22:58:36 20.9 23 22.6
003C5573 2019-02-27 22:27:50 20.9 23 22.6
003C5573 2019-02-27 21:57:37 21 23 22.5
003C5573 2019-02-27 21:27:24 21 23 22.4
003C5573 2019-02-27 20:57:10 21 23 22.3
003C5573 2019-02-27 20:26:56 21.1 23 22.3
003C5573 2019-02-27 19:56:43 21.1 23 22.4
003C5573 2019-02-27 19:26:28 21.2 24 22.5
003C5573 2019-02-27 18:56:15 21.3 24 23.3
003C5573 2019-02-27 18:26:01 21.4 24 23.3
003C5573 2019-02-27 17:55:49 21.5 24 23.4
003C5573 2019-02-27 17:25:35 21.6 25 23.4
003C5573 2019-02-27 16:55:22 21.7 26 23.2
003C5573 2019-02-27 16:25:09 21.6 26 23.3
003C5573 2019-02-27 15:54:54 21.6 26 23.2
003C5573 2019-02-27 15:24:39 21.5 26 23.1
003C5573 2019-02-27 14:54:22 21.4 26 23.1
003C5573 2019-02-27 14:24:07 21.3 26 23.1
003C5573 2019-02-27 13:53:52 21.2 26 23.1
003C5573 2019-02-27 13:23:36 21.2 25 23.1
003C5573 2019-02-27 12:53:19 21.2 25 23.2
003C5573 2019-02-27 12:23:03 21.1 25 23.1
003C5573 2019-02-27 11:52:48 21.1 25 22.3
003C5573 2019-02-27 11:22:33 21.1 25 22.5
003C5573 2019-02-27 10:52:18 21 25 22.6
003C5573 2019-02-27 10:22:03 20.9 25 22.8
003C5573 2019-02-27 09:51:47 20.9 25 22.7
003C5573 2019-02-27 09:21:32 20.8 24 22.6
003C5573 2019-02-27 08:51:19 20.8 24 22.9
003C5573 2019-02-27 08:21:05 20.8 24 22.9
003C5573 2019-02-27 07:50:52 20.8 24 22.9
003C5573 2019-02-27 07:20:38 20.8 24 22.8
003C5573 2019-02-27 06:50:24 20.8 24 22.7
003C5573 2019-02-27 06:20:10 20.9 24 21.7
003C5573 2019-02-27 05:49:57 20.8 24 21.5
003C5573 2019-02-27 05:19:44 20.9 24 21.7
003C5573 2019-02-27 04:49:31 20.9 24 21.6
003C5573 2019-02-27 04:19:18 20.9 24 21.5
003C5573 2019-02-27 03:49:05 20.9 24 21.3
003C5573 2019-02-27 03:18:52 20.9 24 21.6
003C5573 2019-02-27 02:48:39 20.9 24 21.6
003C5573 2019-02-27 02:18:27 20.9 24 21.6
003C5573 2019-02-27 01:48:14 21 24 21.7
003C5573 2019-02-27 01:18:00 21 24 21.6
003C5573 2019-02-27 00:47:46 21 24 21.6
003C5573 2019-02-27 00:17:31 21.1 24 21.4
003C5573 2019-02-26 23:47:18 21.2 24 21.5
003C5573 2019-02-26 23:17:05 21.2 24 21.4
003C5573 2019-02-26 22:46:51 21.2 24 21.1
003C5573 2019-02-26 22:16:37 21.3 24 22
003C5573 2019-02-26 21:46:24 21.3 24 21.9
003C5573 2019-02-26 21:15:36 21.4 24 23
003C5573 2019-02-26 20:45:22 21.4 24 23.5
003C5573 2019-02-26 20:15:09 21.5 24 24.2
003C5573 2019-02-26 19:44:55 21.5 24 24.7
003C5573 2019-02-26 19:14:41 21.6 24 25.2
003C5573 2019-02-26 18:44:26 21.7 24 25.6
003C5573 2019-02-26 18:14:12 21.8 24 26
003C5573 2019-02-26 17:43:58 21.8 24 26.4
003C5573 2019-02-26 17:13:44 21.9 25 26.7
003C5573 2019-02-26 16:43:28 21.9 25 27
003C5573 2019-02-26 16:13:13 21.8 25 27.3
003C5573 2019-02-26 15:42:59 21.7 25 27.6
003C5573 2019-02-26 15:12:45 21.6 25 27.8
003C5573 2019-02-26 14:42:30 21.5 25 28.1
003C5573 2019-02-26 14:12:17 21.5 25 28.3
003C5573 2019-02-26 13:41:59 21.5 25 28.5
003C5573 2019-02-26 13:11:44 21.4 25 28.7
003C5573 2019-02-26 12:41:30 21.4 25 28.9
003C5573 2019-02-26 12:11:16 21.3 25 29.1
003C5573 2019-02-26 11:41:00 21.2 25 29.3
003C5573 2019-02-26 11:10:45 21.2 25 29.5
003C5573 2019-02-26 10:40:30 21.1 24 29.7
003C5573 2019-02-26 10:10:14 21 24 29.7
003C5573 2019-02-26 09:39:56 20.9 24 29.9
003C5573 2019-02-26 09:09:39 20.8 23 30
003C5573 2019-02-26 08:39:23 20.8 23 30
003C5573 2019-02-26 08:09:09 20.8 23 30
003C5573 2019-02-26 07:38:54 20.8 23 30
003C5573 2019-02-26 07:08:37 20.8 23 30
003C5573 2019-02-26 06:38:21 20.8 23 30
003C5573 2019-02-26 06:08:05 20.8 23 30
003C5573 2019-02-26 05:37:50 20.8 23 30
003C5573 2019-02-26 05:07:35 20.8 23 30
003C5573 2019-02-26 04:37:21 20.9 22 30
003C5573 2019-02-26 04:07:06 20.8 22 30
003C5573 2019-02-26 03:36:50 20.9 22 30
003C5573 2019-02-26 03:06:36 20.9 22 29.9
003C5573 2019-02-26 02:36:21 20.9 22 29.7
003C5573 2019-02-26 02:06:05 20.9 22 29.5
003C5573 2019-02-26 01:35:50 20.9 22 29.3
003C5573 2019-02-26 01:05:36 21 22 29.1
003C5573 2019-02-26 00:35:22 21 22 28.9
003C5573 2019-02-26 00:05:08 21 22 28.7
003C5573 2019-02-25 23:34:50 21 22 28.5
003C5573 2019-02-25 23:04:33 21.1 22 28.3
003C5573 2019-02-25 22:34:18 21.1 22 28
003C5573 2019-02-25 22:04:01 21.2 22 27.8
003C5573 2019-02-25 21:33:45 21.2 21 27.5
003C5573 2019-02-25 21:03:28 21.3 21 27.2
003C5573 2019-02-25 20:33:13 21.3 21 26.9
003C5573 2019-02-25 20:02:26 21.4 21 25.2
003C5573 2019-02-25 19:32:11 21.4 21 24.7
003C5573 2019-02-25 19:01:55 21.5 21 24
003C5573 2019-02-25 18:31:40 21.5 22 23.3
003C5573 2019-02-25 18:01:25 21.6 22 22.4
003C5573 2019-02-25 17:31:10 21.6 22 21.4
003C5573 2019-02-25 17:00:54 21.6 22 20
003C5573 2019-02-25 16:30:37 21.6 22 18
003C5573 2019-02-25 16:00:20 21.6 22 17.8
003C5573 2019-02-25 15:30:03 21.6 23 17.6
003C5573 2019-02-25 14:59:47 21.5 23 17.3
003C5573 2019-02-25 14:29:32 21.4 23 17.9
003C5573 2019-02-25 13:59:15 21.3 23 17.9
003C5573 2019-02-25 13:28:59 21.2 23 17.9
003C5573 2019-02-25 12:58:41 21.1 23 17.7
003C5573 2019-02-25 12:28:24 21.1 22 17.6
003C5573 2019-02-25 11:58:10 21 23 17.3
003C5573 2019-02-25 11:27:54 20.9 23 17.5
003C5573 2019-02-25 10:57:35 20.9 23 17
003C5573 2019-02-25 10:27:20 20.7 23 16.8
003C5573 2019-02-25 09:57:04 20.6 22 17
003C5573 2019-02-25 09:26:46 20.6 22 17.3
003C5573 2019-02-25 08:56:33 20.5 22 17.3
003C5573 2019-02-25 08:26:12 20.5 22 17.5
003C5573 2019-02-25 07:55:55 20.5 22 17.4
003C5573 2019-02-25 07:25:38 20.5 22 17.5
003C5573 2019-02-25 06:55:23 20.5 22 17.8
003C5573 2019-02-25 06:25:10 20.5 22 17.7
003C5573 2019-02-25 05:54:52 20.6 22 17.6
003C5573 2019-02-25 05:24:36 20.6 22 17.4
003C5573 2019-02-25 04:54:21 20.6 22 17.3
003C5573 2019-02-25 04:24:03 20.6 22 17.1
003C5573 2019-02-25 03:53:47 20.6 22 17.1
003C5573 2019-02-25 03:23:30 20.6 22 16.5
003C5573 2019-02-25 02:53:13 20.6 23 16.6
003C5573 2019-02-25 02:22:57 20.6 23 17
003C5573 2019-02-25 01:52:42 20.6 23 17.3
003C5573 2019-02-25 01:22:28 20.6 23 17.6
003C5573 2019-02-25 00:52:11 20.6 23 17.3
003C5573 2019-02-25 00:21:54 20.6 23 17.5
003C5573 2019-02-24 23:51:38 20.7 23 17.3
003C5573 2019-02-24 23:21:24 20.6 23 17.2
003C5573 2019-02-24 22:51:08 20.6 23 17.1
003C5573 2019-02-24 22:20:51 20.7 23 17.1
003C5573 2019-02-24 21:50:36 20.7 23 17
003C5573 2019-02-24 21:20:19 20.7 23 17
003C5573 2019-02-24 20:50:02 20.7 23 17.1
003C5573 2019-02-24 20:19:48 20.7 23 16.8
003C5573 2019-02-24 19:49:29 20.7 23 17.2
003C5573 2019-02-24 19:19:11 20.7 23 17.4
003C5573 2019-02-24 18:48:17 20.7 23 17.6
003C5573 2019-02-24 18:18:01 20.7 23 17.7
003C5573 2019-02-24 17:47:44 20.7 22 17.7
003C5573 2019-02-24 17:17:29 20.7 22 19.9
003C5573 2019-02-24 16:47:13 20.7 22 20
003C5573 2019-02-24 16:16:56 20.7 22 20.1
003C5573 2019-02-24 15:46:40 20.7 22 20.1
003C5573 2019-02-24 15:16:25 20.7 22 20.3
003C5573 2019-02-24 14:46:12 20.7 22 20.2
003C5573 2019-02-24 14:15:56 20.7 22 20
003C5573 2019-02-24 13:45:38 20.7 22 19.8
003C5573 2019-02-24 13:15:23 20.7 22 19.6
003C5573 2019-02-24 12:45:08 20.7 22 19.9
003C5573 2019-02-24 12:14:52 20.7 22 19.7
003C5573 2019-02-24 11:44:35 20.7 22 19.9
003C5573 2019-02-24 11:14:20 20.7 21 19.9
003C5573 2019-02-24 10:44:03 20.7 21 20
003C5573 2019-02-24 10:13:47 20.7 21 20.3
003C5573 2019-02-24 09:43:32 20.7 21 20.2
003C5573 2019-02-24 09:13:16 20.7 21 20.2
003C5573 2019-02-24 08:42:59 20.7 21 20.3
003C5573 2019-02-24 08:12:43 20.7 21 20.3
003C5573 2019-02-24 07:42:26 20.7 21 20.3
003C5573 2019-02-24 07:12:11 20.7 21 20.1
003C5573 2019-02-24 06:41:55 20.7 21 20.2
003C5573 2019-02-24 06:11:37 20.8 21 20
003C5573 2019-02-24 05:41:18 20.8 21 20
003C5573 2019-02-24 05:11:01 20.8 21 20.2
003C5573 2019-02-24 04:40:44 20.8 21 18.5
003C5573 2019-02-24 04:10:27 20.8 21 18.6
003C5573 2019-02-24 03:40:11 20.9 20 18.6
003C5573 2019-02-24 03:09:55 20.8 20 18.6
003C5573 2019-02-24 02:39:39 20.9 20 18.5
003C5573 2019-02-24 02:09:26 20.9 20 18.9
003C5573 2019-02-24 01:39:09 20.9 20 18.9
003C5573 2019-02-24 01:08:53 20.9 20 18.9
003C5573 2019-02-24 00:38:38 20.9 20 18.9
003C5573 2019-02-24 00:08:22 20.9 20 18.7
003C5573 2019-02-23 23:38:06 20.9 20 19.1
003C5573 2019-02-23 23:07:49 20.9 19 19.1
003C5573 2019-02-23 22:37:32 21 19 19.4
003C5573 2019-02-23 22:07:19 21 19 19.5
003C5573 2019-02-23 21:36:59 21 19 19.2
003C5573 2019-02-23 21:06:43 21 19 19.3
003C5573 2019-02-23 20:36:28 21.1 19 19.3
003C5573 2019-02-23 20:06:09 21.1 18 19.4
003C5573 2019-02-23 19:35:51 21.1 18 19.6
003C5573 2019-02-23 19:05:38 21.1 18 19.7
003C5573 2019-02-23 18:35:22 21.1 18 19.9
003C5573 2019-02-23 18:05:03 21.2 17 19.8
003C5573 2019-02-23 17:34:14 21.2 17 19.6
003C5573 2019-02-23 17:03:58 21.2 17 19.4
003C5573 2019-02-23 16:33:43 21.1 17 19.4
003C5573 2019-02-23 16:03:27 21 17 19.4
003C5573 2019-02-23 15:33:13 21 17 19.4
003C5573 2019-02-23 15:02:55 20.9 16 19.6
003C5573 2019-02-23 14:32:39 20.9 16 19.4
003C5573 2019-02-23 14:02:22 20.8 16 19.3
003C5573 2019-02-23 13:32:06 20.8 16 19.7
003C5573 2019-02-23 13:01:52 20.8 16 19.8
003C5573 2019-02-23 12:31:35 20.8 16 19.9
003C5573 2019-02-23 12:01:20 20.8 15 19.8
003C5573 2019-02-23 11:31:04 20.8 15 19.8
003C5573 2019-02-23 11:00:47 20.8 15 19.6
003C5573 2019-02-23 10:30:32 20.8 15 19.3
003C5573 2019-02-23 10:00:16 20.8 15 19.6
003C5573 2019-02-23 09:30:00 20.8 15 19.4
003C5573 2019-02-23 08:59:43 20.8 15 19.3
003C5573 2019-02-23 08:29:27 20.8 14 19
003C5573 2019-02-23 07:59:11 20.8 14 18.9
003C5573 2019-02-23 07:28:57 20.8 14 18.8
003C5573 2019-02-23 06:58:44 20.8 14 18.7
003C5573 2019-02-23 06:28:29 20.8 14 18.7
003C5573 2019-02-23 05:58:12 20.8 14 18.6
003C5573 2019-02-23 05:27:57 20.8 13 18.4
003C5573 2019-02-23 04:57:42 20.7 13 18.3
003C5573 2019-02-23 04:27:25 20.8 13 18.2
003C5573 2019-02-23 03:57:10 20.7 13 18.1
003C5573 2019-02-23 03:26:53 20.8 13 18
003C5573 2019-02-23 02:56:36 20.8 13 18
003C5573 2019-02-23 02:26:19 20.8 13 17.5
003C5573 2019-02-23 01:56:05 20.8 12 17.4
003C5573 2019-02-23 01:25:50 20.8 12 17.5
003C5573 2019-02-23 00:55:37 20.8 12 17.3
003C5573 2019-02-23 00:25:19 20.8 12 17
003C5573 2019-02-22 23:55:02 20.9 12 16.7
003C5573 2019-02-22 23:24:46 20.9 12 16.6
003C5573 2019-02-22 22:54:34 20.9 12 16.2
003C5573 2019-02-22 22:24:17 20.9 12 16.2
003C5573 2019-02-22 21:54:01 21 12 16.2
003C5573 2019-02-22 21:23:48 21 12 16.3
003C5573 2019-02-22 20:53:30 21 12 16.6
003C5573 2019-02-22 20:23:16 21 12 16.7
003C5573 2019-02-22 19:53:01 21 12 16.9
003C5573 2019-02-22 19:22:48 21.1 12 17.1
003C5573 2019-02-22 18:52:35 21.1 12 16.8
003C5573 2019-02-22 18:22:20 21.1 12 16.4
003C5573 2019-02-22 17:52:04 21.1 12 16.9
003C5573 2019-02-22 17:21:50 21.2 12 17.2
003C5573 2019-02-22 16:51:37 21.2 13 17.2
003C5573 2019-02-22 16:20:47 21.1 13 17.5
003C5573 2019-02-22 16:10:37 21.1 13 17.6
003C5573 2019-02-22 16:00:25 21.1 13 17.8
003C5573 2019-02-22 15:50:15 21.1 13 17.9
003C5573 2019-02-22 15:40:04 21 13 18.3
003C5573 2019-02-22 15:29:53 21 13 18.4
003C5573 2019-02-22 15:19:41 21 13 18.7
003C5573 2019-02-22 15:09:30 20.9 13 18.6
003C5573 2019-02-22 14:59:20 20.9 13 18.6
003C5573 2019-02-22 14:49:10 20.9 13 18.6
003C5573 2019-02-22 14:38:56 20.9 13 18.4
003C5573 2019-02-22 14:28:45 20.8 13 18.4
003C5573 2019-02-22 14:18:37 20.9 13 18.4
003C5573 2019-02-22 14:08:23 20.8 13 18.4
003C5573 2019-02-22 13:58:13 20.8 13 18
003C5573 2019-02-22 13:48:00 20.8 13 17.7
003C5573 2019-02-22 13:37:49 20.8 13 17.7
003C5573 2019-02-22 13:27:38 20.8 13 17.4
003C5573 2019-02-22 13:17:28 20.7 13 17.5
003C5573 2019-02-22 13:07:18 20.7 13 17.5
003C5573 2019-02-22 12:57:06 20.7 13 17.5
003C5573 2019-02-22 12:46:55 20.7 13 17.1
003C5573 2019-02-22 12:36:47 20.7 13 17.2
003C5573 2019-02-22 12:26:36 20.7 13 17.6
003C5573 2019-02-22 12:16:26 20.7 13 17.5
003C5573 2019-02-22 12:06:12 20.7 13 17.1
003C5573 2019-02-22 11:56:01 20.7 13 17.4
003C5573 2019-02-22 11:45:48 20.6 13 17.6
003C5573 2019-02-22 11:35:37 20.6 13 17.5
003C5573 2019-02-22 11:25:25 20.6 13 17
003C5573 2019-02-22 11:15:17 20.6 13 17.4
003C5573 2019-02-22 11:05:02 20.5 13 17.2
003C5573 2019-02-22 10:54:52 20.5 13 16.9
003C5573 2019-02-22 10:44:41 20.5 13 16.9
003C5573 2019-02-22 10:34:29 20.5 13 16.9
003C5573 2019-02-22 10:24:19 20.5 13 16.9
003C5573 2019-02-22 10:14:08 20.4 13 16.9
003C5573 2019-02-22 10:03:57 20.4 13 16.9
003C5573 2019-02-22 09:53:45 20.4 13 16.9
003C5573 2019-02-22 09:43:35 20.4 13 17.1
003C5573 2019-02-22 09:33:23 20.4 13 17.5
003C5573 2019-02-22 09:23:16 20.4 13 17.5
003C5573 2019-02-22 09:13:05 20.4 13 17.5
003C5573 2019-02-22 09:02:54 20.4 13 17.3
003C5573 2019-02-22 08:52:41 20.4 13 17.2
003C5573 2019-02-22 08:42:30 20.4 13 17.3
003C5573 2019-02-22 08:32:19 20.4 13 17.4
003C5573 2019-02-22 08:22:08 20.4 13 17.6
003C5573 2019-02-22 08:11:57 20.4 13 19.6
003C5573 2019-02-22 08:01:46 20.4 13 19.9
003C5573 2019-02-22 07:51:02 20.4 13 19.9
003C5573 2019-02-22 07:40:51 20.4 13 19.6
003C5573 2019-02-22 07:30:40 20.4 13 19.7
003C5573 2019-02-22 07:20:29 20.4 13 19.7
003C5573 2019-02-22 07:10:18 20.4 13 19.4
003C5573 2019-02-22 07:00:08 20.4 13 19.3
003C5573 2019-02-22 06:49:56 20.5 13 19.3
003C5573 2019-02-22 06:39:46 20.4 13 19.7
003C5573 2019-02-22 06:29:35 20.5 13 19.7
003C5573 2019-02-22 06:19:24 20.5 13 19.7
003C5573 2019-02-22 06:09:13 20.5 13 19.7
003C5573 2019-02-22 05:59:02 20.5 13 20
003C5573 2019-02-22 05:48:51 20.5 13 20
003C5573 2019-02-22 05:38:39 20.5 13 19.9
003C5573 2019-02-22 05:28:32 20.5 13 20
003C5573 2019-02-22 05:18:19 20.5 13 20
003C5573 2019-02-22 05:08:06 20.5 13 20
003C5573 2019-02-22 04:57:55 20.5 13 20
003C5573 2019-02-22 04:47:43 20.5 13 20
003C5573 2019-02-22 04:37:32 20.5 13 20
003C5573 2019-02-22 04:27:20 20.5 13 20
003C5573 2019-02-22 04:17:13 20.5 13 19.6
003C5573 2019-02-22 04:07:02 20.5 13 17.3
003C5573 2019-02-22 03:56:46 20.5 13 16.9
003C5573 2019-02-22 03:46:34 20.5 13 16.7
003C5573 2019-02-22 03:36:23 20.5 13 16.4
003C5573 2019-02-22 03:26:12 20.5 13 16.8
003C5573 2019-02-22 03:16:01 20.6 13 16.8
003C5573 2019-02-22 03:05:50 20.5 13 16.7
003C5573 2019-02-22 02:55:38 20.5 13 16.6
003C5573 2019-02-22 02:45:27 20.6 13 16.4
003C5573 2019-02-22 02:35:17 20.6 13 16.3
003C5573 2019-02-22 02:25:04 20.6 13 15.6
003C5573 2019-02-22 02:14:52 20.6 13 15.7
003C5573 2019-02-22 02:04:43 20.6 13 16.2
003C5573 2019-02-22 01:54:29 20.6 13 15.5
003C5573 2019-02-22 01:44:18 20.6 13 15.6
003C5573 2019-02-22 01:34:09 20.6 13 15.6
003C5573 2019-02-22 01:23:56 20.6 13 15.3
003C5573 2019-02-22 01:13:45 20.6 13 15.6
003C5573 2019-02-22 01:03:33 20.6 13 16.3
003C5573 2019-02-22 00:53:22 20.6 13 16.3
003C5573 2019-02-22 00:43:10 20.6 13 16.3
003C5573 2019-02-22 00:33:00 20.6 13 16.4
003C5573 2019-02-22 00:22:49 20.6 13 16.5
003C5573 2019-02-22 00:12:38 20.6 13 19.3
003C5573 2019-02-22 00:02:27 20.6 13 20.9
003C5573 2019-02-21 23:52:15 20.7 13 22.1
003C5573 2019-02-21 23:42:04 20.6 13 23
003C5573 2019-02-21 23:31:53 20.7 13 23.8
003C5573 2019-02-21 23:21:09 20.7 13 24.4
003C5573 2019-02-21 22:50:55 20.7 13 24.4
003C5573 2019-02-21 22:20:40 20.7 13 24.4
003C5573 2019-02-21 21:50:26 20.7 13 24.4
003C5573 2019-02-21 21:20:11 20.8 13 24.4
003C5573 2019-02-21 20:49:55 20.8 13 24.5
003C5573 2019-02-21 20:19:41 20.9 13 24.5
003C5573 2019-02-21 19:49:23 20.9 13 24.4
003C5573 2019-02-21 19:19:08 21 13 25
003C5573 2019-02-21 18:48:53 21 13 25
003C5573 2019-02-21 18:18:38 21.1 13 25
003C5573 2019-02-21 17:48:23 21.2 14 25
003C5573 2019-02-21 17:18:09 21.2 14 25
003C5573 2019-02-21 16:47:56 21 14 25
003C5573 2019-02-21 16:17:41 20.9 14 24.9
003C5573 2019-02-21 15:47:26 20.7 13 24.9
003C5573 2019-02-21 15:17:13 20.7 13 24.9
003C5573 2019-02-21 14:47:01 20.6 13 24.9
003C5573 2019-02-21 14:16:42 20.6 13 24.9
003C5573 2019-02-21 13:46:27 20.6 14 24.3
003C5573 2019-02-21 13:16:12 20.6 14 23.6
003C5573 2019-02-21 12:45:58 20.6 14 22.8
003C5573 2019-02-21 12:15:43 20.5 14 21.8
003C5573 2019-02-21 11:45:27 20.5 15 20.7
003C5573 2019-02-21 11:15:12 20.5 15 19
003C5573 2019-02-21 10:44:58 20.5 15 19.4
003C5573 2019-02-21 09:44:27 20.5 16 19.4
003C5573 2019-02-21 09:14:09 20.5 16 19.3
003C5573 2019-02-21 08:43:54 20.5 17 19.6
003C5573 2019-02-21 08:13:37 20.5 17 19.8
003C5573 2019-02-21 07:13:08 20.5 17 19.7
003C5573 2019-02-21 06:42:50 20.5 18 19.7
003C5573 2019-02-21 06:12:34 20.5 18 19.7
003C5573 2019-02-21 05:42:16 20.6 18 17.6
003C5573 2019-02-21 05:12:01 20.6 18 17.5
003C5573 2019-02-21 04:41:46 20.6 18 17.5
003C5573 2019-02-21 04:11:32 20.6 18 17.5
003C5573 2019-02-21 03:41:17 20.6 18 17.5
003C5573 2019-02-21 03:11:01 20.6 18 17.3
003C5573 2019-02-21 02:40:45 20.6 19 17.3
003C5573 2019-02-21 02:10:30 20.6 19 17.2
003C5573 2019-02-21 01:40:13 20.7 19 17.2
003C5573 2019-02-21 01:09:58 20.6 19 19.6
003C5573 2019-02-21 00:39:42 20.6 19 21.2
003C5573 2019-02-21 00:09:28 20.6 19 22.3
003C5573 2019-02-20 23:39:08 20.7 19 23.2
003C5573 2019-02-20 23:08:51 20.7 19 23.2
003C5573 2019-02-20 22:38:36 20.9 19 23.9
003C5573 2019-02-20 22:37:25 20.6 20 23.8
003C5573 2019-02-20 22:07:09 20.6 20 24.5
003C5573 2019-02-20 21:36:53 20.7 20 24.4
003C5573 2019-02-20 21:06:36 20.7 20 24.4
003C5573 2019-02-20 20:36:19 20.7 20 24.5
003C5573 2019-02-20 20:06:04 20.7 20 24.4
003C5573 2019-02-20 19:35:48 20.7 20 24.4
003C5573 2019-02-20 19:05:33 20.7 20 24.4
003C5573 2019-02-20 18:35:15 20.7 20 24.5
003C5573 2019-02-20 18:05:00 20.8 20 24.4
003C5573 2019-02-20 17:34:47 20.8 20 24.4
003C5573 2019-02-20 17:04:31 20.8 21 24.5
003C5573 2019-02-20 16:34:15 20.8 22 24.5
003C5573 2019-02-20 16:04:00 20.8 22 24.5
003C5573 2019-02-20 15:33:45 20.7 22 24.5
003C5573 2019-02-20 15:03:32 20.7 22 24.6
003C5573 2019-02-20 14:33:11 20.8 23 24.6